This is the latest recevied weather packets stored in our database for station/object 4S6DRJ-13. If no packets are shown the sender has not sent any weather packets the latest 10 day(s).
| Time | Temp. | Humidity | Pressure | Rain* | Wind** | Luminosity | Snow |
|---|---|---|---|---|---|---|---|
| 1788339701 | 32.22° C | 66% | 1007.8 hPa | 0 mm | 1.79 m/s, 188° | 1102 W/m² | - |
| 1788339640 | 32.22° C | 67% | 1007.9 hPa | 0 mm | 0.45 m/s, 293° | 1103 W/m² | - |
| 1788339579 | 32.22° C | 67% | 1008.1 hPa | 0 mm | 1.79 m/s, 248° | 1102 W/m² | - |
| 1788339519 | 32.22° C | 66% | 1008 hPa | 0 mm | 1.79 m/s, 14° | 1100 W/m² | - |
| 1788339457 | 31.67° C | 66% | 1007.9 hPa | 0 mm | 0.89 m/s, 264° | 872 W/m² | - |
| 1788339396 | 31.67° C | 65% | 1007.9 hPa | 0 mm | 1.79 m/s, 294° | 966 W/m² | - |
| 1788339335 | 31.67° C | 66% | 1007.9 hPa | 0 mm | 1.79 m/s, 242° | 979 W/m² | - |
| 1788339274 | 31.67° C | 68% | 1008 hPa | 0 mm | 2.24 m/s, 311° | 984 W/m² | - |
| 1788339213 | 31.67° C | 68% | 1008 hPa | 0 mm | 1.34 m/s, 235° | 984 W/m² | - |
| 1788339152 | 31.67° C | 67% | 1008 hPa | 0 mm | 1.79 m/s, 226° | 972 W/m² | - |
| 1788339091 | 31.67° C | 67% | 1008.1 hPa | 0 mm | 2.24 m/s, 162° | 961 W/m² | - |
| 1788339030 | 31.67° C | 68% | 1008 hPa | 0 mm | 3.58 m/s, 211° | 955 W/m² | - |
| 1788338908 | 31.67° C | 70% | 1008.1 hPa | 0 mm | 0.45 m/s, 269° | 862 W/m² | - |
| 1788338847 | 31.67° C | 70% | 1008.3 hPa | 0 mm | 1.34 m/s, 155° | 1103 W/m² | - |
| 1788338786 | 31.11° C | 70% | 1008.3 hPa | 0 mm | 2.24 m/s, 154° | 1102 W/m² | - |
| 1788338725 | 31.11° C | 71% | 1008.1 hPa | 0 mm | 0.45 m/s, 191° | 1109 W/m² | - |
| 1788338664 | 31.11° C | 70% | 1008.3 hPa | 0 mm | 0.89 m/s, 306° | 316 W/m² | - |
| 1788338603 | 31.11° C | 70% | 1008.4 hPa | 0 mm | 2.68 m/s, 237° | 1116 W/m² | - |
| 1788338542 | 31.67° C | 69% | 1008.3 hPa | 0 mm | 0.89 m/s, 271° | 628 W/m² | - |
| 1788338482 | 31.67° C | 69% | 1008.3 hPa | 0 mm | 1.34 m/s, 117° | 273 W/m² | - |
| 1788338420 | 31.67° C | 68% | 1008.4 hPa | 0 mm | 3.13 m/s, 344° | 255 W/m² | - |
| 1788338359 | 31.67° C | 69% | 1008.4 hPa | 0 mm | 1.79 m/s, 226° | 291 W/m² | - |
| 1788338298 | 31.67° C | 68% | 1008.3 hPa | 0 mm | 1.34 m/s, 292° | 930 W/m² | - |
| 1788338237 | 31.67° C | 68% | 1008.2 hPa | 0 mm | 0.89 m/s, 261° | 1116 W/m² | - |
| 1788338176 | 31.67° C | 68% | 1008.4 hPa | 0 mm | 0.45 m/s, 218° | 1123 W/m² | - |
* Rain latest hour (hover to see other rain measurements)
** Current wind speed in m/s (hover to see current wind gust speed)